WA7SB-7 Weather Reports


Display with metric or nautical units.
time (UTC)temp
F
wind
direction
speed
MPH
gust
MPH
rain 1hr
in
rain 24hr
in
rain mn
in
humidity
%
barometer
mb
20260503202531 69 283 0.0 0.0 0.00 0.00 0.00 70 1010.8
20260503202430 69 281 0.0 0.0 0.00 0.00 0.00 69 1010.8
20260503202026 70 283 0.0 0.0 0.00 0.00 0.00 71 1010.9
20260503201929 70 303 0.0 0.0 0.00 0.00 0.00 70 1010.9
20260503201524 69 122 0.0 0.0 0.00 0.00 0.00 72 1011.1
20260503201429 69 122 0.0 0.0 0.00 0.00 0.00 72 1011.0
20260503201024 67 148 0.0 0.0 0.00 0.00 0.00 74 1011.1
20260503200925 67 261 0.0 0.0 0.00 0.00 0.00 75 1011.1
20260503200525 66 319 0.0 0.0 0.00 0.00 0.00 75 1011.1
20260503200426 65 302 0.0 0.0 0.00 0.00 0.00 75 1011.2
20260503200015 64 230 0.0 0.0 0.00 0.00 0.00 78 1011.4
20260503195917 64 231 0.0 0.0 0.00 0.00 0.00 78 1011.3
20260503195515 63 305 0.0 0.0 0.00 0.00 0.00 78 1011.4
20260503195414 63 330 0.0 0.0 0.00 0.00 0.00 78 1011.5
20260503195014 62 2 0.0 0.0 0.00 0.00 0.00 78 1011.5
20260503194934 62 296 0.0 0.0 0.00 0.00 0.00 78 1011.4
20260503194533 62 125 0.0 0.0 0.00 0.00 0.00 78 1011.6
20260503194416 62 244 0.0 0.0 0.00 0.00 0.00 78 1011.4
20260503194014 62 321 0.0 0.0 0.00 0.00 0.00 79 1011.4
20260503193916 61 120 0.0 0.0 0.00 0.00 0.00 79 1011.4
20260503193516 61 54 0.0 0.0 0.00 0.00 0.00 78 1011.5
20260503193435 61 57 0.0 0.0 0.00 0.00 0.00 78 1011.5
20260503193031 61 297 0.0 0.0 0.00 0.00 0.00 78 1011.4
20260503192930 61 278 0.0 0.0 0.00 0.00 0.00 79 1011.4
20260503192527 61 153 0.0 0.0 0.00 0.00 0.00 78 1011.4
20260503192428 61 296 0.0 0.0 0.00 0.00 0.00 78 1011.3
20260503192024 61 288 0.0 0.0 0.00 0.00 0.00 77 1011.2
20260503191927 61 297 0.0 0.0 0.00 0.00 0.00 77 1011.3
20260503191523 62 285 0.0 0.0 0.00 0.00 0.00 76 1011.3
20260503191429 63 269 0.0 0.0 0.00 0.00 0.00 77 1011.3
20260503191025 63 294 0.0 0.0 0.00 0.00 0.00 76 1011.4
20260503190926 63 299 0.0 0.0 0.00 0.00 0.00 76 1011.4
20260503190527 63 342 0.0 0.0 0.00 0.00 0.00 78 1011.4
20260503190426 63 55 0.0 0.0 0.00 0.00 0.00 78 1011.3
20260503190033 62 119 0.0 0.0 0.00 0.00 0.00 78 1011.3
20260503185913 62 290 0.0 0.0 0.00 0.00 0.00 78 1011.3
20260503185513 62 264 0.0 0.0 0.00 0.00 0.00 77 1011.3
20260503185415 62 295 0.0 0.0 0.00 0.00 0.00 77 1011.3
20260503185017 62 243 0.0 0.0 0.00 0.00 0.00 77 1011.4
20260503184918 62 281 0.0 0.0 0.00 0.00 0.00 78 1011.4
20260503184519 62 281 0.0 0.0 0.00 0.00 0.00 78 1011.3
20260503184422 62 94 0.0 0.0 0.00 0.00 0.00 78 1011.3
20260503184021 61 163 0.0 0.0 0.00 0.00 0.00 78 1011.2
20260503183923 61 226 0.0 0.0 0.00 0.00 0.00 78 1011.2
20260503183523 62 298 0.0 0.0 0.00 0.00 0.00 78 1011.3
20260503183421 62 259 0.0 0.0 0.00 0.00 0.00 78 1011.3
20260503183019 62 324 0.0 0.0 0.00 0.00 0.00 78 1011.2
20260503182920 62 171 0.0 0.0 0.00 0.00 0.00 78 1011.3
20260503182520 62 176 0.0 0.0 0.00 0.00 0.00 77 1011.2
20260503182422 62 285 0.0 0.0 0.00 0.00 0.00 78 1011.2
20260503182017 61 237 0.0 0.0 0.00 0.00 0.00 78 1011.2
20260503181923 61 169 0.0 0.0 0.00 0.00 0.00 78 1011.3
20260503181519 61 291 0.0 0.0 0.00 0.00 0.00 78 1011.2
20260503181423 62 62 0.0 0.0 0.00 0.00 0.00 76 1011.2
20260503181018 62 207 0.0 0.0 0.00 0.00 0.00 77 1011.1
20260503180921 62 301 0.0 0.0 0.00 0.00 0.00 77 1011.1
20260503180522 63 263 0.0 0.0 0.00 0.00 0.00 77 1011.1
20260503180421 63 298 0.0 0.0 0.00 0.00 0.00 77 1011.1
20260503180031 63 200 0.0 0.0 0.00 0.00 0.00 77 1011.3
20260503175913 63 291 0.0 0.0 0.00 0.00 0.00 78 1011.3
20260503175513 63 304 0.0 0.0 0.00 0.00 0.00 78 1011.3
20260503175416 63 294 0.0 0.0 0.00 0.00 0.00 78 1011.3
20260503175015 62 355 0.0 0.0 0.00 0.00 0.00 78 1011.2
20260503174915 62 282 0.0 0.0 0.00 0.00 0.00 78 1011.2
20260503174517 62 103 0.0 0.0 0.00 0.00 0.00 79 1011.3
20260503174418 62 278 0.0 0.0 0.00 0.00 0.00 79 1011.3
20260503174017 62 277 0.0 0.0 0.00 0.00 0.00 80 1011.2
20260503173919 62 221 0.0 0.0 0.00 0.00 0.00 80 1011.3
20260503173520 62 303 0.0 0.0 0.00 0.00 0.00 80 1011.3
20260503173417 62 273 0.0 0.0 0.00 0.00 0.00 80 1011.2
20260503173016 61 290 0.0 0.0 0.00 0.00 0.00 80 1011.1
20260503172916 61 277 0.0 0.0 0.00 0.00 0.00 81 1011.2
20260503172518 61 301 0.0 0.0 0.00 0.00 0.00 80 1011.2
20260503172419 62 277 0.0 0.0 0.00 0.00 0.00 80 1011.1
20260503172018 62 314 0.0 0.0 0.00 0.00 0.00 83 1011.0
20260503171919 62 284 0.0 0.0 0.00 0.00 0.00 83 1011.0
20260503171516 61 177 0.0 0.0 0.00 0.00 0.00 84 1011.1
20260503171421 61 297 0.0 0.0 0.00 0.00 0.00 84 1011.0
20260503171016 61 295 0.0 0.0 0.00 0.00 0.00 87 1010.9
20260503170920 60 295 0.0 0.0 0.00 0.00 0.00 87 1010.9
20260503170516 60 288 0.0 0.0 0.00 0.00 0.00 90 1011.0
20260503170417 60 304 0.0 0.0 0.00 0.00 0.00 91 1011.0
20260503150925 51 101 0.0 0.0 0.00 0.00 0.00 94 1010.7
20260503150525 50 102 0.0 0.0 0.00 0.00 0.00 94 1010.7
20260503150423 50 101 0.0 0.0 0.00 0.00 0.00 94 1010.6
20260503131419 46 102 0.0 0.0 0.00 0.00 0.00 93 1010.5
20260503131019 45 102 0.0 0.0 0.00 0.00 0.00 93 1010.5
20260503130919 45 101 0.0 0.0 0.00 0.00 0.00 93 1010.5
20260503130520 45 101 0.0 0.0 0.00 0.00 0.00 93 1010.4
20260503130421 46 102 0.0 0.0 0.00 0.00 0.00 93 1010.4
20260503110529 46 101 0.0 0.0 0.00 0.00 0.00 93 1011.0
20260503110428 46 101 0.0 0.0 0.00 0.00 0.00 93 1011.0
20260503090423 47 102 0.0 0.0 0.00 0.00 0.00 92 1011.8
20260503081517 47 102 0.0 0.0 0.00 0.00 0.00 92 1012.4
20260503081417 47 101 0.0 0.0 0.00 0.00 0.00 92 1012.3
20260503081017 48 102 0.0 0.0 0.00 0.00 0.00 92 1012.3
20260503080527 48 102 0.0 0.0 0.00 0.00 0.00 92 1012.3
20260503080425 48 102 0.0 0.0 0.00 0.00 0.00 92 1012.3
20260503072934 49 102 0.0 0.0 0.00 0.00 0.00 92 1012.6
20260503072529 49 102 0.0 0.0 0.00 0.00 0.00 92 1012.5
20260503072435 49 102 0.0 0.0 0.00 0.00 0.00 92 1012.6
20260503072031 49 101 0.0 0.0 0.00 0.00 0.00 92 1012.6
20260503071932 49 102 0.0 0.0 0.00 0.00 0.00 92 1012.6
20260503071529 49 102 0.0 0.0 0.00 0.00 0.00 92 1012.7
20260503071430 49 102 0.0 0.0 0.00 0.00 0.00 92 1012.7
20260503071031 49 101 0.0 0.0 0.00 0.00 0.00 92 1012.7
20260503070932 49 102 0.0 0.0 0.00 0.00 0.00 92 1012.7
20260503070531 49 102 0.0 0.0 0.00 0.00 0.00 92 1012.8
20260503070431 49 101 0.0 0.0 0.00 0.00 0.00 92 1012.8
20260503055027 50 255 0.0 0.0 0.00 0.00 0.00 91 1013.0
20260503054927 50 255 0.0 0.0 0.00 0.00 0.00 91 1013.1
20260503054526 50 255 0.0 0.0 0.00 0.00 0.00 91 1013.1
20260503054428 50 255 0.0 0.0 0.00 0.00 0.00 91 1013.1
20260503054029 50 255 0.0 0.0 0.00 0.00 0.00 91 1013.1
20260503053930 50 255 0.0 0.0 0.00 0.00 0.00 91 1013.1
20260503053531 50 255 0.0 0.0 0.00 0.00 0.00 91 1013.2
20260503053431 50 255 0.0 0.0 0.00 0.00 0.00 91 1013.2
20260503053025 50 255 0.0 0.0 0.00 0.00 0.00 91 1013.2
20260503052928 50 255 0.0 0.0 0.00 0.00 0.00 91 1013.2
20260503052523 51 255 0.0 0.0 0.00 0.00 0.00 91 1013.2
20260503052426 51 255 0.0 0.0 0.00 0.00 0.00 91 1013.2
20260503052020 51 255 0.0 0.0 0.00 0.00 0.00 91 1013.3
20260503051921 51 255 0.0 0.0 0.00 0.00 0.00 91 1013.2
20260503051521 51 255 0.0 0.0 0.00 0.00 0.00 91 1013.3
20260503051422 51 255 0.0 0.0 0.00 0.00 0.00 91 1013.3
20260503051025 51 255 0.0 0.0 0.00 0.00 0.00 91 1013.4
20260503050925 51 255 0.0 0.0 0.00 0.00 0.00 91 1013.4
20260503050529 51 255 0.0 0.0 0.00 0.00 0.00 91 1013.5
20260503050429 52 255 0.0 0.0 0.00 0.00 0.00 91 1013.4
20260503050019 52 255 0.0 0.0 0.00 0.00 0.00 91 1013.4
20260503045918 52 255 0.0 0.0 0.00 0.00 0.00 91 1013.5
20260503045519 52 140 0.0 0.0 0.00 0.00 0.00 91 1013.5
20260503045421 52 140 0.0 0.0 0.00 0.00 0.00 91 1013.4
20260503045022 52 140 0.0 0.0 0.00 0.00 0.00 90 1013.4
20260503044923 52 140 0.0 0.0 0.00 0.00 0.00 90 1013.5
20260503044524 52 140 0.0 0.0 0.00 0.00 0.00 90 1013.2
20260503044426 52 140 0.0 0.0 0.00 0.00 0.00 90 1013.1
20260503044028 52 184 0.0 0.0 0.00 0.00 0.00 90 1013.0
20260503043930 52 280 0.0 0.0 0.00 0.00 0.00 90 1013.1
20260503043530 52 131 0.0 0.0 0.00 0.00 0.00 90 1013.2
20260503043430 52 131 0.0 0.0 0.00 0.00 0.00 90 1013.3
20260503043030 52 131 0.0 0.0 0.00 0.00 0.00 90 1013.2
20260503042931 52 131 0.0 0.0 0.00 0.00 0.00 90 1013.3
20260503042527 52 131 0.0 0.0 0.00 0.00 0.00 90 1013.2
20260503042414 52 131 0.0 0.0 0.00 0.00 0.00 90 1013.2
20260503042029 52 179 0.0 0.0 0.00 0.00 0.00 90 1013.1
20260503041934 52 179 0.0 0.0 0.00 0.00 0.00 90 1013.1
20260503041530 52 180 0.0 0.0 0.00 0.00 0.00 90 1013.2
20260503041414 52 180 0.0 0.0 0.00 0.00 0.00 90 1013.2
20260503041033 52 104 0.0 0.0 0.00 0.00 0.00 90 1012.9
20260503040933 52 94 0.0 0.0 0.00 0.00 0.00 90 1012.9
20260503040530 52 15 0.0 0.0 0.00 0.00 0.00 89 1013.0
20260503040428 52 15 0.0 0.0 0.00 0.00 0.00 89 1012.9
20260503040017 52 258 0.0 0.0 0.00 0.00 0.00 89 1012.9
20260503035918 52 258 0.0 0.0 0.00 0.00 0.00 89 1012.9
20260503035520 52 258 0.0 0.0 0.00 0.00 0.00 89 1012.9
20260503035421 52 258 0.0 0.0 0.00 0.00 0.00 89 1012.9
20260503035020 52 129 0.0 0.0 0.00 0.00 0.00 89 1012.9
20260503034918 53 129 0.0 0.0 0.00 0.00 0.00 89 1013.0
20260503034517 53 124 0.0 0.0 0.00 0.00 0.00 88 1012.9
20260503034416 53 113 0.0 0.0 0.00 0.00 0.00 88 1012.8
20260503034015 53 97 0.0 0.0 0.00 0.00 0.00 88 1012.7
20260503033916 53 252 0.0 0.0 0.00 0.00 0.00 88 1012.7
20260503033518 53 254 0.0 0.0 0.00 0.00 0.00 88 1012.7
20260503033418 53 259 0.0 0.0 0.00 0.00 0.00 88 1012.7
20260503033014 53 212 0.0 0.0 0.00 0.00 0.00 88 1012.4
20260503032913 53 212 0.0 0.0 0.00 0.00 0.00 88 1012.5
20260503032528 54 212 0.0 0.0 0.00 0.00 0.00 87 1012.5
20260503032434 54 212 0.0 0.0 0.00 0.00 0.00 87 1012.4
20260503032030 54 212 0.0 0.0 0.00 0.00 0.00 87 1012.4
20260503031930 54 212 0.0 0.0 0.00 0.00 0.00 87 1012.5
20260503031530 54 212 0.0 0.0 0.00 0.00 0.00 87 1012.5
20260503031429 54 212 0.0 0.0 0.00 0.00 0.00 87 1012.5
20260503031026 54 95 0.0 0.0 0.00 0.00 0.00 86 1012.5
20260503030926 54 95 0.0 0.0 0.00 0.00 0.00 86 1012.5
20260503030526 55 220 0.0 0.0 0.00 0.00 0.00 86 1012.5
20260503030427 55 281 0.0 0.0 0.00 0.00 0.00 86 1012.6
20260503030018 55 285 0.0 0.0 0.00 0.00 0.00 86 1012.7
20260503025918 55 235 0.0 0.0 0.00 0.00 0.00 86 1012.7
20260503025516 55 186 0.0 0.0 0.00 0.00 0.00 86 1012.6
20260503025415 55 186 0.0 0.0 0.00 0.00 0.00 86 1012.7
20260503025014 55 186 0.0 0.0 0.00 0.00 0.00 86 1012.7
20260503024934 55 186 0.0 0.0 0.00 0.00 0.00 86 1012.7
20260503024532 56 9 0.0 0.0 0.00 0.00 0.00 86 1012.9
20260503024433 56 264 0.0 0.0 0.00 0.00 0.00 86 1012.9
20260503024033 56 264 0.0 0.0 0.00 0.00 0.00 86 1013.0
20260503023913 56 264 0.0 0.0 0.00 0.00 0.00 86 1013.0
20260503023515 56 264 0.0 0.0 0.00 0.00 0.00 85 1013.1
20260503023434 56 264 0.0 0.0 0.00 0.00 0.00 85 1013.1
20260503023028 56 276 0.0 0.0 0.00 0.00 0.00 86 1013.1
20260503022932 56 276 0.0 0.0 0.00 0.00 0.00 86 1013.1
20260503022528 56 275 0.0 0.0 0.00 0.00 0.00 86 1013.1
20260503022414 56 275 0.0 0.0 0.00 0.00 0.00 86 1013.0
20260503022029 55 276 0.0 0.0 0.00 0.00 0.00 86 1013.1
20260503021931 55 276 0.0 0.0 0.00 0.00 0.00 86 1013.1
20260503021531 55 275 0.0 0.0 0.00 0.00 0.00 85 1013.0
20260503021434 55 275 0.0 0.0 0.00 0.00 0.00 85 1013.0
20260503021031 55 273 0.0 0.0 0.00 0.00 0.00 85 1013.1
20260503020931 55 259 0.0 0.0 0.00 0.00 0.00 85 1013.1
20260503020529 56 259 0.0 0.0 0.00 0.00 0.00 84 1013.0
20260503020428 56 291 0.0 0.0 0.00 0.00 0.00 84 1013.0
20260503020019 56 257 0.0 0.0 0.00 0.00 0.00 84 1013.0
20260503015921 56 221 0.0 0.0 0.00 0.00 0.00 84 1012.9
20260503015521 56 134 0.0 0.0 0.00 0.00 0.00 85 1012.9
20260503015423 56 134 0.0 0.0 0.00 0.00 0.00 85 1012.9
20260503015023 56 148 0.0 0.0 0.00 0.00 0.00 84 1013.0
20260503014925 56 148 0.0 0.0 0.00 0.00 0.00 84 1013.0
20260503014523 56 284 0.0 0.0 0.00 0.00 0.00 83 1013.0
20260503014423 56 77 0.0 0.0 0.00 0.00 0.00 83 1013.0
20260503014020 57 304 0.0 0.0 0.00 0.00 0.00 82 1013.0
20260503013919 57 262 0.0 0.0 0.00 0.00 0.00 83 1012.9
20260503013518 57 13 0.0 0.0 0.00 0.00 0.00 82 1013.0
20260503013416 57 257 0.0 0.0 0.00 0.00 0.00 82 1013.0
20260503013014 57 158 0.0 0.0 0.00 0.00 0.00 83 1013.1
20260503012935 57 161 0.0 0.0 0.00 0.00 0.00 83 1013.1
20260503012527 57 300 0.0 0.0 0.00 0.00 0.00 83 1013.1
20260503012432 57 204 0.0 0.0 0.00 0.00 0.00 83 1013.1
20260503012029 57 276 0.0 0.0 0.00 0.00 0.00 83 1013.2
20260503011915 57 281 0.0 0.0 0.00 0.00 0.00 83 1013.2
20260503011513 57 301 0.0 0.0 0.00 0.00 0.00 82 1013.1
20260503011415 57 82 0.0 0.0 0.00 0.00 0.00 82 1013.1
20260503011015 57 297 0.0 0.0 0.00 0.00 0.00 82 1013.1
20260503010918 57 305 0.0 0.0 0.00 0.00 0.00 82 1013.1
20260503010515 58 294 0.0 0.0 0.00 0.00 0.00 81 1013.2
20260503010414 58 274 0.0 0.0 0.00 0.00 0.00 81 1013.2
20260503010016 58 300 0.0 0.0 0.00 0.00 0.00 80 1013.2
20260503005914 58 214 0.0 0.0 0.00 0.00 0.00 80 1013.2
20260503005514 59 92 0.0 0.0 0.00 0.00 0.00 80 1013.2
20260503005433 59 118 0.0 0.0 0.00 0.00 0.00 80 1013.3
20260503005029 59 39 0.0 0.0 0.00 0.00 0.00 80 1013.2
20260503004934 59 90 0.0 0.0 0.00 0.00 0.00 81 1013.3
20260503004527 59 276 0.0 0.0 0.00 0.00 0.00 81 1013.3
20260503004431 59 99 0.0 0.0 0.00 0.00 0.00 81 1013.3
20260503004025 59 85 0.0 0.0 0.00 0.00 0.00 80 1013.3
20260503003927 59 298 0.0 0.0 0.00 0.00 0.00 80 1013.3
20260503003527 59 78 0.0 0.0 0.00 0.00 0.00 80 1013.3
20260503003427 59 314 0.0 0.0 0.00 0.00 0.00 80 1013.3
20260503003027 59 69 0.0 0.0 0.00 0.00 0.00 80 1013.3
20260503002928 59 285 0.0 0.0 0.00 0.00 0.00 80 1013.3
20260503002529 59 312 0.0 0.0 0.00 0.00 0.00 82 1013.1
20260503002430 58 290 0.0 0.0 0.00 0.00 0.00 82 1013.1
20260503002024 58 257 0.0 0.0 0.00 0.00 0.00 82 1013.2
20260503001924 58 336 0.0 0.0 0.00 0.00 0.00 82 1013.2
20260503001520 58 279 0.0 0.0 0.00 0.00 0.00 81 1013.3
20260503001421 58 182 0.0 0.0 0.00 0.00 0.00 82 1013.4
20260503001020 58 231 0.0 0.0 0.00 0.00 0.00 82 1013.4
20260503000922 58 64 0.0 0.0 0.00 0.00 0.00 82 1013.4
20260503000522 58 297 0.0 0.0 0.00 0.00 0.00 82 1013.3
20260503000422 58 190 0.0 0.0 0.00 0.00 0.00 81 1013.4
20260503000029 58 274 0.0 0.0 0.00 0.00 0.00 82 1013.4
20260502235930 58 307 0.0 0.0 0.00 0.00 0.00 82 1013.4
20260502235531 57 297 0.0 0.0 0.00 0.00 0.00 83 1013.3
20260502235434 57 289 0.0 0.0 0.00 0.00 0.00 83 1013.4
20260502235027 57 221 0.0 0.0 0.00 0.00 0.00 83 1013.5
20260502234931 57 327 0.0 0.0 0.00 0.00 0.00 82 1013.6
20260502234525 57 311 0.0 0.0 0.00 0.00 0.00 82 1013.7
20260502234431 57 307 0.0 0.0 0.00 0.00 0.00 82 1013.6
20260502234026 57 303 0.0 0.0 0.00 0.00 0.00 81 1013.8
20260502233925 58 252 0.0 0.0 0.00 0.00 0.00 81 1013.7
20260502233524 58 326 0.0 0.0 0.00 0.00 0.00 80 1013.7
20260502233422 58 347 0.0 0.0 0.00 0.00 0.00 80 1013.8
20260502233018 59 255 0.0 0.0 0.00 0.00 0.00 80 1013.8
20260502232918 59 63 0.0 0.0 0.00 0.00 0.00 81 1013.7
20260502232518 59 41 0.0 0.0 0.00 0.00 0.00 80 1013.7
20260502232418 59 345 0.0 0.0 0.00 0.00 0.00 80 1013.8
20260502232019 59 345 0.0 0.0 0.00 0.00 0.00 81 1013.9
20260502231920 59 139 0.0 0.0 0.00 0.00 0.00 81 1013.9
20260502231521 59 330 0.0 0.0 0.00 0.00 0.00 80 1013.8
20260502231422 59 304 0.0 0.0 0.00 0.00 0.00 80 1014.0
20260502231023 59 311 0.0 0.0 0.00 0.00 0.00 80 1014.0
20260502230924 59 252 0.0 0.0 0.00 0.00 0.00 81 1014.0
20260502230525 59 293 0.0 0.0 0.00 0.00 0.00 80 1014.0
20260502230425 59 179 0.0 0.0 0.00 0.00 0.00 80 1014.0
20260502230013 59 136 0.0 0.0 0.00 0.00 0.00 80 1014.1
20260502225934 59 274 0.0 0.0 0.00 0.00 0.00 81 1014.3
20260502225531 59 62 0.0 0.0 0.00 0.00 0.00 80 1014.2
20260502225432 59 199 0.0 0.0 0.00 0.00 0.00 80 1014.2
20260502225024 59 341 0.0 0.0 0.00 0.00 0.00 79 1014.2
20260502224928 59 60 0.0 0.0 0.00 0.00 0.00 79 1014.2
20260502224522 60 116 0.0 0.0 0.00 0.00 0.00 79 1014.3
20260502224426 60 274 0.0 0.0 0.00 0.00 0.00 78 1014.3
20260502224022 60 306 0.0 0.0 0.00 0.00 0.00 78 1014.4
20260502223922 60 140 0.0 0.0 0.00 0.00 0.00 79 1014.4
20260502223521 59 304 0.0 0.0 0.00 0.00 0.00 80 1014.5
20260502223421 59 13 0.0 0.0 0.00 0.00 0.00 80 1014.5
20260502223019 59 233 0.0 0.0 0.00 0.00 0.00 78 1014.6
20260502222920 60 256 0.0 0.0 0.00 0.00 0.00 79 1014.6
20260502222521 60 131 0.0 0.0 0.00 0.00 0.00 78 1014.7
20260502222422 60 62 0.0 0.0 0.00 0.00 0.00 78 1014.7
20260502222020 61 159 0.0 0.0 0.00 0.00 0.00 78 1014.7
20260502221919 61 113 0.0 0.0 0.00 0.00 0.00 78 1014.6
20260502221517 60 285 0.0 0.0 0.00 0.00 0.00 80 1014.7
20260502221436 60 301 0.0 0.0 0.00 0.00 0.00 80 1014.7
20260502221032 59 150 0.0 0.0 0.00 0.00 0.00 82 1014.7
20260502220931 59 357 0.0 0.0 0.00 0.00 0.00 82 1014.7
20260502220528 58 307 0.0 0.0 0.00 0.00 0.00 80 1014.7
20260502220428 59 262 0.0 0.0 0.00 0.00 0.00 80 1014.7
20260502220014 58 271 0.0 0.0 0.00 0.00 0.00 81 1014.7
20260502215933 58 91 0.0 0.0 0.00 0.00 0.00 81 1014.7
20260502215530 58 348 0.0 0.0 0.00 0.00 0.00 80 1014.7
20260502215416 58 265 0.0 0.0 0.00 0.00 0.00 81 1014.8
20260502215032 58 88 0.0 0.0 0.00 0.00 0.00 80 1014.8
20260502214915 58 300 0.0 0.0 0.00 0.00 0.00 81 1014.8
20260502214533 58 126 0.0 0.0 0.00 0.00 0.00 80 1014.7
20260502214432 58 127 0.0 0.0 0.00 0.00 0.00 80 1014.8
20260502214029 59 44 0.0 0.0 0.00 0.00 0.00 81 1014.8
20260502213929 59 238 0.0 0.0 0.00 0.00 0.00 81 1014.7
20260502213529 58 68 0.0 0.0 0.00 0.00 0.00 80 1014.6
20260502213430 58 71 0.0 0.0 0.00 0.00 0.00 80 1014.6
20260502213028 59 58 0.0 0.0 0.00 0.00 0.00 79 1014.6
20260502212930 59 281 0.0 0.0 0.00 0.00 0.00 80 1014.7
20260502212528 58 40 0.0 0.0 0.00 0.00 0.00 80 1014.8
20260502212430 58 49 0.0 0.0 0.00 0.00 0.00 80 1014.8
20260502212029 58 294 0.0 0.0 0.00 0.00 0.00 81 1014.8
20260502211929 58 287 0.0 0.0 0.00 0.00 0.00 81 1014.9
20260502211525 58 235 0.0 0.0 0.00 0.00 0.00 80 1014.8
20260502211426 58 290 0.0 0.0 0.00 0.00 0.00 80 1014.8
20260502211026 59 265 0.0 0.0 0.00 0.00 0.00 80 1014.8
20260502210927 59 85 0.0 0.0 0.00 0.00 0.00 79 1014.8
20260502210524 59 314 0.0 0.0 0.00 0.00 0.00 79 1014.9
20260502210422 59 319 0.0 0.0 0.00 0.00 0.00 81 1014.9
20260502210025 59 133 0.0 0.0 0.00 0.00 0.00 81 1014.9
20260502205927 59 39 0.0 0.0 0.00 0.00 0.00 81 1015.0
20260502205519 59 65 0.0 0.0 0.00 0.00 0.00 79 1015.0
20260502205423 59 98 0.0 0.0 0.00 0.00 0.00 80 1015.0
20260502205016 59 335 0.0 0.0 0.00 0.00 0.00 80 1015.1
20260502204917 59 98 0.0 0.0 0.00 0.00 0.00 79 1015.1
20260502204516 59 52 0.0 0.0 0.00 0.00 0.00 79 1015.1
20260502204415 59 233 0.0 0.0 0.00 0.00 0.00 79 1015.1
20260502204014 59 319 0.0 0.0 0.00 0.00 0.00 78 1015.1
20260502203914 59 297 0.0 0.0 0.00 0.00 0.00 78 1015.1
20260502203515 59 32 0.0 0.0 0.00 0.00 0.00 78 1015.1
20260502203434 59 181 0.0 0.0 0.00 0.00 0.00 78 1015.1
20260502203032 59 296 0.0 0.0 0.00 0.00 0.00 79 1015.1
20260502202914 59 256 0.0 0.0 0.00 0.00 0.00 80 1015.1